Regional Weather Roundup
Issued by NWS

Home | Current Version | Previous Version | Graphics & Text | Print | Product List | Glossary On
Versions: 1 2 3 4 5 6 7 8 9 10 11 12 13 14 15 16 17 18 19 20 21 22 23 24 25 26 27 28 29 30 31 32 33 34 35 36 37 38 39 40 41 42 43 44 45 46 47 48 49 50
000
ASUS44 KMEG 201800
RWRTN
TENNESSEE HOURLY STATE WEATHER ROUNDUP
NATIONAL WEATHER SERVICE MEMPHIS TN
100 PM CDT WED SEP 20 2017

TNZ002-004-019-021-049-052-054-088>092-201900-
WEST TENNESSEE

CITY           SKY/WX    TMP DP  RH WIND       PRES   REMARKS
MEMPHIS INTL   MOSUNNY   88  73  61 W12G25    30.00F HX  95
NWS MEMPHIS      N/A     87 N/A N/A MISG        N/A
JACKSON        PTSUNNY   87  74  64 SW6       30.01F HX  95
DYERSBURG      PTSUNNY   89  74  60 VRB7      30.00F HX  98
$$

TNZ008-025-027-028-033-062-065-066-201900-
NORTH MIDDLE TENNESSEE

CITY           SKY/WX    TMP DP  RH WIND       PRES   REMARKS
NASHVILLE      PTSUNNY   88  70  55 VRB6      30.04F HX  93
CLARKSVILLE    MOSUNNY   87  71  58 VRB5      30.01F HX  93
SMYRNA         PTSUNNY   85  72  64 SE3       30.06F HX  90
CROSSVILLE     MOSUNNY   80  67  64 VRB5      30.11F
$$

TNZ061-075-076-078-094-096-097-201900-
SOUTH MIDDLE TENNESSEE

CITY           SKY/WX    TMP DP  RH WIND       PRES   REMARKS
TULLAHOMA      MOSUNNY   82  66  57 E3        30.08F
WINCHESTER     MOSUNNY   82  70  65 CALM        N/A
MCMINNVILLE    MOSUNNY   86  72  62 CALM      30.07F HX  92
$$

TNZ017-018-042-046-047-201900-
NORTHEAST TENNESSEE

CITY           SKY/WX    TMP DP  RH WIND       PRES   REMARKS
TRI CITIES     MOSUNNY   83  64  52 N5        30.08F
$$

TNZ012-013-036-069-073-074-201900-
CENTRAL EAST TENNESSEE

CITY           SKY/WX    TMP DP  RH WIND       PRES   REMARKS
KNOXVILLE      NOT AVBL
OAK RIDGE      SUNNY     81  66  60 SE3       30.07F
GATLINBURG     SUNNY     88  63  42 VRB5      30.06F
$$

TNZ083-085-099-201900-
SOUTHEAST TENNESSEE

CITY           SKY/WX    TMP DP  RH WIND       PRES   REMARKS
CHATTANOOGA    MOSUNNY   85  66  53 N5        30.06F
$$

SKY/WX REPORTED AS FAIR MEANS FEW OR NO CLOUDS BELOW
12 THOUSAND FEET.




USA.gov is the U.S. government's official web portal to all federal, state and local government web resources and services.